[[{"header":{"parameterUnit":"m.s-1","parameterCategory":1,"la1":30.2991,"la2":30.254,"lo1":-89.0895,"lo2":-89.0444,"dy":0.0017,"dx":0.0017,"nx":28,"ny":28,"refTime":"2024-07-19T09:00:00:Z","depth":0,"parameterNumber":2,"parameterNumberName":"U-component_of_WINDS"},"data":[0,0,0,0,0,0,0,0,0,0,0,0,0,0,0,0,0,0,0,0,0,0,0,0,0,0,0,0,0,0,0,0,0,0,0,0,0,0,0,0,0,0,0,0,0,0,0,0,0,0,0,0,0,0,0,0,0,0,0.0591,0.0592,0,0.062,0.062,0.062,0.0609,0.0609,0.0608,0.0607,0.0637,0.0638,0.064,0,0,0,0,0,0,0,0,0,0,0,0,0,0.0527,0.0529,0.0591,0.0592,0.0592,0.0619,0.062,0.062,0.061,0.0609,0.0608,0.0607,0.0637,0.0638,0.064,0,0,0,0,0,0,0,0,0,0,0,0,0,0.0555,0.0529,0.0591,0.059,0.059,0.0619,0.062,0.062,0.061,0.0609,0.0608,0.0607,0.0636,0.0638,0.064,0.0672,0,0,0.0646,0.0647,0,0,0,0,0,0,0,0,0.0554,0.0558,0.059,0.059,0.059,0.061,0.0608,0.0638,0.061,0.0602,0.0607,0.0606,0.0629,0.0631,0.0639,0.0674,0.0675,0.0647,0.0648,0.0649,0.0649,0,0,0,0,0,0,0,0.0552,0.0557,0.0602,0.059,0.0591,0.0588,0.0591,0.0614,0.0621,0.0603,0.0602,0.0606,0.0629,0.0637,0.0639,0.0676,0.0647,0.0648,0.065,0.0651,0.0737,0.0738,0,0,0,0,0,0,0.055,0.0555,0.0602,0.0603,0.0569,0.059,0.0593,0.0605,0.062,0.0622,0.0606,0.0605,0.0634,0.0637,0.064,0.0678,0.0649,0.0651,0.0652,0.0736,0.0737,0.0738,0,0,0,0,0,0,0.0549,0.0554,0.06,0.0579,0.0585,0.0592,0.0605,0.0606,0.0614,0.0623,0.0624,0.0613,0.0633,0.0638,0.0664,0.0679,0.0652,0.0654,0.0734,0.0736,0.0737,0.0755,0,0,0,0,0,0,0.0547,0.0554,0.0566,0.0579,0.0586,0.0624,0.0606,0.0607,0.0617,0.0616,0.063,0.0631,0.0633,0.0661,0.0666,0.0681,0.0655,0.0733,0.0735,0.0737,0.0753,0.0757,0.076,0,0,0,0,0,0.0545,0.0571,0.0567,0.0573,0.0602,0.0625,0.0628,0.0629,0.0619,0.0631,0.0637,0.0631,0.0677,0.0664,0.067,0.0686,0.0732,0.0734,0.0737,0.0751,0.0756,0.076,0,0,0,0,0,0,0.056,0.0572,0.0569,0.06,0.0611,0.0623,0.0639,0.0634,0.0649,0.0647,0.0648,0.0651,0.0678,0.0685,0.067,0.0717,0.0703,0.0706,0.0712,0.0716,0.072,0.0717,0.0657,0,0,0,0,0,0.0567,0.0585,0.0595,0.0621,0.0627,0.0632,0.0642,0.0641,0.0653,0.0658,0.0666,0.0678,0.0695,0.0706,0.0722,0.0754,0.0756,0.0767,0.0771,0.0774,0.0777,0.0792,0.0797,0.0746,0.0745,0.0745,0,0,0.0582,0.0591,0.0602,0.0624,0.0633,0.0651,0.0636,0.0656,0.0669,0.0661,0.0687,0.0693,0.0706,0.0734,0.0748,0.0741,0.0791,0.0777,0.0779,0.078,0.0795,0.08,0.0804,0.0747,0.0747,0.0747,0,0,0.0618,0.0627,0.0649,0.0658,0.0671,0.0674,0.0679,0.0691,0.0694,0.072,0.0714,0.0729,0.0759,0.0768,0.0776,0.0814,0.0808,0.0819,0.0837,0.0853,0.0857,0.086,0.0872,0.0877,0.0822,0.0822,0.0822,0,0.0634,0.0661,0.0661,0.0681,0.069,0.0683,0.0705,0.0714,0.0732,0.0739,0.0731,0.0766,0.0775,0.0805,0.0813,0.0821,0.0826,0.0817,0.0856,0.086,0.0863,0.0875,0.0879,0.0823,0.0823,0.0823,0.0823,0,0.068,0.0699,0.0715,0.0732,0.0743,0.0764,0.0767,0.0778,0.0776,0.078,0.0805,0.0814,0.0831,0.0839,0.0838,0.0868,0.0863,0.0856,0.0841,0.0869,0.088,0.0885,0.0825,0.0824,0.0824,0.0824,0,0,0.0727,0.0742,0.0748,0.0755,0.0768,0.0783,0.0803,0.0819,0.0828,0.0841,0.0857,0.0881,0.0874,0.0883,0.0883,0.0896,0.0924,0.0887,0.0887,0.0893,0.0957,0.0962,0.0967,0.092,0.0921,0.0922,0.0955,0,0.0763,0.0798,0.0798,0.083,0.0847,0.084,0.0857,0.0867,0.087,0.0884,0.0888,0.0905,0.0895,0.09,0.0913,0.0918,0.0936,0.0915,0.0935,0.0936,0.0931,0.0973,0.0979,0.101,0.096,0.096,0.0961,0,0.081,0.0823,0.0857,0.0866,0.0873,0.0889,0.0903,0.0917,0.0927,0.0929,0.0938,0.0936,0.0955,0.094,0.0967,0.0952,0.096,0.0964,0.0965,0.0966,0.095,0.0975,0.102,0.1024,0.0968,0.0967,0.0967,0,0.084,0.0866,0.0889,0.0895,0.0907,0.0918,0.0923,0.0933,0.0942,0.0954,0.096,0.0975,0.0983,0.0994,0.0995,0.0984,0.1021,0.1007,0.1022,0.1022,0.103,0.103,0.1076,0.1037,0.1036,0.1036,0.1036,0,0.088,0.09,0.0902,0.0916,0.0938,0.0938,0.096,0.0964,0.0973,0.0987,0.0982,0.0996,0.0996,0.101,0.1011,0.1032,0.1036,0.1037,0.1037,0.1037,0.1037,0.1042,0.104,0.1038,0.1037,0.1037,0.1037,0,0.0917,0.0919,0.0943,0.0952,0.0954,0.097,0.0978,0.0991,0.0993,0.1012,0.1016,0.102,0.1036,0.1037,0.1056,0.1057,0.1082,0.108,0.1078,0.1078,0.1093,0.1091,0.1144,0.1151,0.1107,0.1108,0.1108,0,0.0942,0.0957,0.0967,0.0976,0.0982,0.0997,0.1006,0.1005,0.1015,0.1027,0.1039,0.1054,0.1066,0.1091,0.1096,0.111,0.1107,0.1125,0.111,0.1109,0.1107,0.1105,0.1106,0.1128,0.1128,0.1129,0.1129,0,0.0985,0.0985,0.0998,0.1011,0.1022,0.1033,0.1043,0.105,0.1051,0.1062,0.1077,0.1087,0.1105,0.112,0.1133,0.1139,0.1134,0.1134,0.1138,0.1138,0.1136,0.1136,0.1086,0.1133,0.1132,0.1132,0.1132,0.1132,0.1016,0.1029,0.1038,0.1052,0.1059,0.1068,0.108,0.1084,0.1097,0.1111,0.111,0.1127,0.1136,0.1154,0.116,0.1173,0.1167,0.1173,0.1175,0.1176,0.1177,0.1134,0.1175,0.1175,0.1175,0.1175,0.1175,0,0.1059,0.1064,0.1077,0.109,0.1101,0.1095,0.1105,0.1115,0.113,0.1139,0.115,0.1167,0.1181,0.1187,0.12,0.1209,0.1207,0.1213,0.1212,0.1213,0.1182,0.1177,0.1214,0.1214,0.1214,0.1214,0.1214,0.1214,0.1082,0.1103,0.1104,0.1128,0.1132,0.1149,0.1155,0.1163,0.1169,0.1189,0.12,0.1203,0.121,0.1223,0.1236,0.1237,0.1242,0.1248,0.1248,0.1219,0.1215,0.1211,0.1206,0.1249,0.1249,0.1277,0.1277,0.1278]},{"header":{"parameterUnit":"m.s-1","parameterCategory":1,"la1":30.2991,"la2":30.254,"lo1":-89.0895,"lo2":-89.0444,"dy":0.0017,"dx":0.0017,"nx":28,"ny":28,"refTime":"2024-07-19T09:00:00:Z","depth":0,"parameterNumber":3,"parameterNumberName":"V-component_of_WINDS"},"data":[0,0,0,0,0,0,0,0,0,0,0,0,0,0,0,0,0,0,0,0,0,0,0,0,0,0,0,0,0,0,0,0,0,0,0,0,0,0,0,0,0,0,0,0,0,0,0,0,0,0,0,0,0,0,0,0,0,0,5.6744,5.6745,0,5.6906,5.6908,5.691,5.6832,5.6828,5.6824,5.682,5.6982,5.699,5.6998,0,0,0,0,0,0,0,0,0,0,0,0,0,5.6358,5.6366,5.6743,5.6746,5.6748,5.6906,5.6908,5.691,5.6833,5.6828,5.6823,5.6818,5.6979,5.6989,5.6999,0,0,0,0,0,0,0,0,0,0,0,0,0,5.6524,5.6368,5.6743,5.6728,5.6728,5.6905,5.6908,5.6911,5.6834,5.6828,5.6822,5.6816,5.6976,5.6988,5.7,5.72,0,0,5.7037,5.7043,0,0,0,0,0,0,0,0,5.6514,5.6538,5.6728,5.673,5.673,5.6843,5.6832,5.7008,5.6836,5.6794,5.682,5.6813,5.694,5.6955,5.6999,5.7207,5.7214,5.7038,5.7046,5.7051,5.7054,0,0,0,0,0,0,0,5.6503,5.653,5.6808,5.6731,5.6732,5.6711,5.6727,5.6865,5.69,5.6797,5.6792,5.6812,5.6939,5.6987,5.7002,5.7216,5.7038,5.7049,5.7056,5.7061,5.7591,5.7598,0,0,0,0,0,0,5.6493,5.6522,5.6802,5.6812,5.6605,5.6723,5.6741,5.6813,5.6898,5.6905,5.6817,5.6808,5.6969,5.6988,5.7008,5.7244,5.7051,5.7062,5.7069,5.7585,5.7593,5.76,0,0,0,0,0,0,5.6485,5.6519,5.6796,5.6666,5.6699,5.6736,5.6817,5.6819,5.6867,5.6914,5.6919,5.6861,5.6965,5.699,5.7152,5.7249,5.7068,5.7079,5.7577,5.7587,5.7596,5.772,0,0,0,0,0,0,5.6474,5.6517,5.6595,5.6668,5.6707,5.694,5.6823,5.6827,5.6889,5.6878,5.6955,5.6962,5.6962,5.7134,5.7164,5.7262,5.7089,5.7568,5.7581,5.7593,5.7708,5.7733,5.7755,0,0,0,0,0,5.6461,5.6623,5.6599,5.6634,5.6806,5.6946,5.6968,5.6966,5.6897,5.6975,5.7004,5.696,5.7233,5.7151,5.7184,5.7288,5.7562,5.7578,5.7592,5.7697,5.7728,5.7755,0,0,0,0,0,0,5.656,5.6633,5.6607,5.6798,5.6867,5.6933,5.7031,5.7,5.7088,5.7075,5.7067,5.7085,5.7252,5.7286,5.7193,5.7483,5.7387,5.7409,5.7455,5.7485,5.7508,5.7496,5.7099,0,0,0,0,0,5.6604,5.6714,5.6771,5.6934,5.6969,5.6994,5.7055,5.7048,5.7118,5.7146,5.7187,5.7255,5.7355,5.7422,5.7518,5.7712,5.7726,5.7799,5.7823,5.7842,5.7861,5.7963,5.7995,5.765,5.765,5.765,0,0,5.6696,5.6749,5.6819,5.6955,5.7007,5.7118,5.7019,5.7142,5.7223,5.7164,5.7319,5.7351,5.7426,5.7604,5.7684,5.7637,5.796,5.7862,5.7877,5.7886,5.7982,5.8014,5.8043,5.766,5.7658,5.7657,0,0,5.692,5.6973,5.7113,5.7167,5.7247,5.7262,5.7296,5.7366,5.7385,5.7541,5.7497,5.7593,5.7768,5.7822,5.7872,5.8113,5.8074,5.8144,5.8268,5.8367,5.8394,5.8418,5.8501,5.8532,5.8163,5.8164,5.8164,0,5.7024,5.7192,5.7189,5.7314,5.7373,5.7325,5.7465,5.7517,5.7624,5.7664,5.761,5.7826,5.7874,5.8062,5.812,5.8163,5.8199,5.8135,5.8391,5.8415,5.8437,5.8516,5.8548,5.8171,5.817,5.817,5.8169,0,5.7314,5.7431,5.7534,5.7639,5.771,5.7842,5.7855,5.7927,5.7912,5.7932,5.8088,5.8143,5.8247,5.8291,5.8279,5.8476,5.8444,5.8391,5.8294,5.8478,5.8552,5.8583,5.8182,5.818,5.8177,5.8175,0,0,5.7607,5.7706,5.7744,5.7789,5.7873,5.7961,5.8089,5.8192,5.8252,5.8326,5.8431,5.8579,5.8529,5.8586,5.8579,5.8666,5.8849,5.8601,5.8603,5.8643,5.9066,5.9104,5.914,5.8824,5.883,5.8834,5.9059,0,5.7836,5.8062,5.806,5.8268,5.8374,5.8328,5.8438,5.85,5.8521,5.8611,5.8633,5.8737,5.8665,5.8698,5.8783,5.8809,5.8933,5.8793,5.8918,5.8923,5.89,5.9179,5.9221,5.9431,5.9088,5.9093,5.9097,0,5.8133,5.8217,5.8436,5.85,5.8544,5.8645,5.8736,5.8824,5.8891,5.89,5.8963,5.8941,5.9067,5.8967,5.9139,5.9043,5.9094,5.9114,5.9122,5.9133,5.902,5.9195,5.9498,5.9529,5.9143,5.9139,5.9136,0,5.8321,5.8489,5.8641,5.8681,5.8761,5.8832,5.8868,5.8929,5.8989,5.9069,5.9107,5.92,5.9251,5.9322,5.9324,5.9251,5.9497,5.9398,5.9505,5.9505,5.9558,5.9555,5.9871,5.9594,5.9594,5.9593,5.9592,0,5.8576,5.8711,5.8726,5.8819,5.8967,5.8963,5.9109,5.9138,5.9192,5.9287,5.9253,5.9343,5.9341,5.9432,5.9434,5.9574,5.9598,5.9606,5.9605,5.9609,5.9607,5.9641,5.9626,5.9601,5.96,5.9598,5.9597,0,5.8812,5.8828,5.8989,5.9051,5.9069,5.9176,5.9227,5.9314,5.933,5.9451,5.9479,5.9505,5.9609,5.9619,5.974,5.9741,5.991,5.9894,5.9888,5.9885,5.9991,5.998,6.0339,6.0384,6.0079,6.0082,6.0085,0,5.8973,5.9075,5.9147,5.9209,5.9249,5.935,5.9411,5.9409,5.9474,5.9556,5.9632,5.9733,5.9814,5.9982,6.001,6.0101,6.0086,6.0205,6.0099,6.0099,6.0085,6.0078,6.0087,6.0226,6.0229,6.0232,6.0234,0,5.9256,5.9257,5.9348,5.9441,5.9515,5.9588,5.9656,5.9708,5.9713,5.9787,5.9894,5.9957,6.0079,6.0179,6.0268,6.0302,6.0268,6.0267,6.0296,6.0301,6.0292,6.0295,5.9942,6.0259,6.0256,6.0254,6.0253,6.0252,5.9457,5.9545,5.9609,5.9709,5.976,5.9823,5.9907,5.9934,6.0023,6.0124,6.0116,6.0233,6.0293,6.0409,6.045,6.0539,6.0499,6.0542,6.0553,6.0563,6.0573,6.0279,6.0556,6.0555,6.0554,6.0554,6.0553,0,5.9736,5.9774,5.9867,5.9963,6.0041,6.0004,6.0076,6.0143,6.0247,6.0307,6.0386,6.0507,6.0602,6.0637,6.0729,6.0794,6.078,6.0818,6.0812,6.082,6.0605,6.0569,6.0827,6.0827,6.0827,6.0827,6.0827,6.0827,5.9891,6.0036,6.0045,6.0213,6.0249,6.0365,6.0408,6.0465,6.0513,6.0649,6.0729,6.0751,6.0799,6.0894,6.0979,6.0986,6.102,6.1064,6.1065,6.0863,6.0836,6.0809,6.0776,6.1072,6.1073,6.1272,6.1274,6.1275]}]]